GLD1186 SSKS-SBBG

Flight info

Callsign GLD1186
Flight time 0h 45m
Altitude 10500
Route 300S5256W 3032S533W 3111S5340W 3112S5353W 3123S546W
Aircraft C208/M-SDFGIRY/S

Departure

Time 2026-04-26 14:14
Airport Cachoeira do Sul Airport (SSKS)

Arrival

Time 2026-04-26 15:00
Airport Comandante Gustavo Kraemer Airport (SBBG)
Time Latitude Longitude Altitude Speed Heading
2026-04-26 14:01 -30.00347 -52.94003 273 ft 0 kts 76°
2026-04-26 14:10 -30.00342 -52.93995 276 ft 3 kts 28°
2026-04-26 14:11 -30.00310 -52.93997 273 ft 0 kts 349°
2026-04-26 14:11 -30.00277 -52.94004 274 ft 13 kts 348°
2026-04-26 14:12 -30.00225 -52.93947 274 ft 16 kts 106°
2026-04-26 14:12 -30.00264 -52.93807 273 ft 18 kts 107°
2026-04-26 14:12 -30.00300 -52.93674 272 ft 17 kts 113°
2026-04-26 14:12 -30.00319 -52.93579 271 ft 4 kts 113°
2026-04-26 14:13 -30.00326 -52.93602 270 ft 0 kts 287°
2026-04-26 14:14 -30.00278 -52.93779 273 ft 58 kts 290°
2026-04-26 14:14 -30.00112 -52.94371 442 ft 89 kts 287°
2026-04-26 14:14 -29.99937 -52.95078 785 ft 98 kts 285°
2026-04-26 14:14 -29.99823 -52.95853 1209 ft 93 kts 258°
2026-04-26 14:15 -30.00315 -52.96285 1558 ft 101 kts 178°
2026-04-26 14:15 -30.00791 -52.96064 1594 ft 124 kts 154°
2026-04-26 14:15 -30.01635 -52.95655 1773 ft 131 kts 179°
2026-04-26 14:15 -30.02535 -52.95694 2067 ft 132 kts 185°
2026-04-26 14:16 -30.03752 -52.95387 2288 ft 140 kts 157°
2026-04-26 14:16 -30.04333 -52.95001 2392 ft 142 kts 156°
2026-04-26 14:16 -30.05279 -52.94882 2538 ft 139 kts 200°
2026-04-26 14:16 -30.06174 -52.95305 2693 ft 141 kts 200°
2026-04-26 14:17 -30.07134 -52.95557 2848 ft 142 kts 196°
2026-04-26 14:17 -30.08106 -52.95792 3006 ft 144 kts 195°
2026-04-26 14:17 -30.09104 -52.96025 3163 ft 148 kts 195°
2026-04-26 14:17 -30.10121 -52.96256 3306 ft 149 kts 195°
2026-04-26 14:18 -30.11134 -52.96481 3461 ft 146 kts 195°
2026-04-26 14:18 -30.12096 -52.96698 3620 ft 144 kts 195°
2026-04-26 14:18 -30.13107 -52.96926 3802 ft 143 kts 195°
2026-04-26 14:18 -30.14081 -52.97144 3969 ft 143 kts 195°
2026-04-26 14:19 -30.15055 -52.97365 4152 ft 143 kts 196°
2026-04-26 14:19 -30.16030 -52.97585 4322 ft 143 kts 196°
2026-04-26 14:19 -30.17005 -52.97804 4498 ft 142 kts 197°
2026-04-26 14:19 -30.17969 -52.98022 4667 ft 141 kts 197°
2026-04-26 14:20 -30.18946 -52.98242 4849 ft 140 kts 197°
2026-04-26 14:20 -30.19939 -52.98465 5019 ft 140 kts 197°
2026-04-26 14:20 -30.20888 -52.98680 5190 ft 139 kts 198°
2026-04-26 14:20 -30.21844 -52.98895 5365 ft 139 kts 198°
2026-04-26 14:21 -30.22790 -52.99109 5540 ft 139 kts 198°
2026-04-26 14:21 -30.23815 -52.99340 5727 ft 138 kts 198°
2026-04-26 14:21 -30.24782 -52.99559 5907 ft 137 kts 198°
2026-04-26 14:21 -30.25726 -52.99771 6078 ft 136 kts 198°
2026-04-26 14:22 -30.26427 -52.99930 6214 ft 135 kts 199°
2026-04-26 14:22 -30.27353 -53.00139 6384 ft 135 kts 199°
2026-04-26 14:22 -30.28275 -53.00347 6550 ft 134 kts 198°
2026-04-26 14:22 -30.29190 -53.00556 6716 ft 134 kts 199°
2026-04-26 14:23 -30.30104 -53.00761 6881 ft 135 kts 199°
2026-04-26 14:23 -30.31030 -53.00970 7049 ft 135 kts 199°
2026-04-26 14:23 -30.31932 -53.01175 7222 ft 134 kts 199°
2026-04-26 14:23 -30.32874 -53.01387 7380 ft 133 kts 200°
2026-04-26 14:24 -30.33793 -53.01594 7554 ft 131 kts 200°
2026-04-26 14:24 -30.34687 -53.01797 7727 ft 131 kts 200°
2026-04-26 14:24 -30.35475 -53.01976 7877 ft 132 kts 200°
2026-04-26 14:24 -30.36221 -53.02145 8019 ft 132 kts 200°
2026-04-26 14:25 -30.37611 -53.02459 8290 ft 132 kts 200°
2026-04-26 14:25 -30.38221 -53.02597 8406 ft 131 kts 200°
2026-04-26 14:25 -30.39115 -53.02800 8582 ft 131 kts 201°
2026-04-26 14:25 -30.40003 -53.03002 8758 ft 132 kts 201°
2026-04-26 14:26 -30.40903 -53.03205 8943 ft 132 kts 201°
2026-04-26 14:26 -30.41809 -53.03412 9117 ft 132 kts 201°
2026-04-26 14:26 -30.42712 -53.03616 9300 ft 132 kts 201°
2026-04-26 14:26 -30.43612 -53.03819 9472 ft 131 kts 201°
2026-04-26 14:27 -30.44503 -53.04019 9652 ft 130 kts 201°
2026-04-26 14:27 -30.45388 -53.04221 9831 ft 129 kts 201°
2026-04-26 14:27 -30.46262 -53.04420 9998 ft 130 kts 202°
2026-04-26 14:27 -30.47144 -53.04619 10154 ft 129 kts 202°
2026-04-26 14:28 -30.48025 -53.04820 10323 ft 129 kts 202°
2026-04-26 14:28 -30.48903 -53.05019 10455 ft 131 kts 203°
2026-04-26 14:28 -30.49832 -53.05238 10470 ft 141 kts 202°
2026-04-26 14:28 -30.50828 -53.05466 10476 ft 150 kts 201°
2026-04-26 14:29 -30.51871 -53.05704 10474 ft 155 kts 201°
2026-04-26 14:29 -30.52949 -53.05946 10480 ft 160 kts 201°
2026-04-26 14:29 -30.54054 -53.06198 10478 ft 163 kts 201°
2026-04-26 14:29 -30.55093 -53.06629 10465 ft 154 kts 223°
2026-04-26 14:30 -30.55923 -53.07444 10468 ft 153 kts 228°
2026-04-26 14:30 -30.56744 -53.08237 10472 ft 153 kts 227°
2026-04-26 14:30 -30.57561 -53.09011 10467 ft 154 kts 227°
2026-04-26 14:30 -30.58403 -53.09811 10470 ft 155 kts 227°
2026-04-26 14:31 -30.59239 -53.10603 10471 ft 155 kts 227°
2026-04-26 14:31 -30.60074 -53.11393 10475 ft 155 kts 227°
2026-04-26 14:31 -30.60898 -53.12172 10471 ft 154 kts 227°
2026-04-26 14:31 -30.61726 -53.12960 10473 ft 154 kts 227°
2026-04-26 14:32 -30.62555 -53.13746 10465 ft 154 kts 227°
2026-04-26 14:32 -30.63416 -53.14559 10470 ft 153 kts 227°
2026-04-26 14:32 -30.64245 -53.15347 10468 ft 154 kts 227°
2026-04-26 14:32 -30.65078 -53.16136 10472 ft 155 kts 227°
2026-04-26 14:33 -30.65913 -53.16931 10473 ft 155 kts 227°
2026-04-26 14:33 -30.66748 -53.17723 10469 ft 155 kts 227°
2026-04-26 14:33 -30.67572 -53.18505 10470 ft 155 kts 227°
2026-04-26 14:33 -30.68419 -53.19309 10467 ft 156 kts 227°
2026-04-26 14:34 -30.69249 -53.20099 10462 ft 156 kts 227°
2026-04-26 14:34 -30.70086 -53.20892 10461 ft 155 kts 227°
2026-04-26 14:34 -30.70917 -53.21681 10465 ft 154 kts 227°
2026-04-26 14:34 -30.71747 -53.22472 10465 ft 153 kts 227°
2026-04-26 14:35 -30.72577 -53.23260 10464 ft 154 kts 227°
2026-04-26 14:35 -30.73406 -53.24048 10460 ft 154 kts 227°
2026-04-26 14:35 -30.74238 -53.24838 10465 ft 154 kts 227°
2026-04-26 14:35 -30.75066 -53.25628 10457 ft 154 kts 227°
2026-04-26 14:36 -30.75894 -53.26414 10462 ft 153 kts 228°
2026-04-26 14:36 -30.76707 -53.27188 10458 ft 152 kts 227°
2026-04-26 14:36 -30.77525 -53.27966 10462 ft 152 kts 227°
2026-04-26 14:36 -30.78348 -53.28749 10463 ft 152 kts 227°
2026-04-26 14:37 -30.79173 -53.29538 10470 ft 154 kts 227°
2026-04-26 14:37 -30.80006 -53.30335 10469 ft 155 kts 227°
2026-04-26 14:37 -30.80838 -53.31124 10463 ft 157 kts 227°
2026-04-26 14:37 -30.81684 -53.31932 10463 ft 157 kts 227°
2026-04-26 14:38 -30.82529 -53.32736 10466 ft 157 kts 227°
2026-04-26 14:38 -30.83375 -53.33542 10465 ft 157 kts 227°
2026-04-26 14:38 -30.84219 -53.34348 10464 ft 157 kts 227°
2026-04-26 14:38 -30.84778 -53.34881 10462 ft 157 kts 227°
2026-04-26 14:39 -30.85906 -53.35957 10463 ft 156 kts 227°
2026-04-26 14:39 -30.86747 -53.36760 10465 ft 156 kts 227°
2026-04-26 14:39 -30.87585 -53.37558 10462 ft 156 kts 227°
2026-04-26 14:39 -30.88426 -53.38364 10466 ft 156 kts 227°
2026-04-26 14:40 -30.89336 -53.39230 10460 ft 156 kts 227°
2026-04-26 14:40 -30.89946 -53.39813 10464 ft 155 kts 227°
2026-04-26 14:40 -30.90778 -53.40610 10464 ft 155 kts 228°
2026-04-26 14:40 -30.91615 -53.41411 10459 ft 156 kts 228°
2026-04-26 14:41 -30.92623 -53.42372 10451 ft 156 kts 227°
2026-04-26 14:41 -30.93475 -53.43186 10443 ft 156 kts 227°
2026-04-26 14:41 -30.94301 -53.43976 10461 ft 154 kts 228°
2026-04-26 14:41 -30.95143 -53.44783 10463 ft 154 kts 228°
2026-04-26 14:42 -30.95971 -53.45575 10463 ft 154 kts 228°
2026-04-26 14:42 -30.96794 -53.46360 10457 ft 153 kts 227°
2026-04-26 14:42 -30.97617 -53.47149 10459 ft 153 kts 228°
2026-04-26 14:42 -30.98442 -53.47940 10461 ft 154 kts 228°
2026-04-26 14:43 -30.99267 -53.48732 10459 ft 154 kts 227°
2026-04-26 14:43 -31.00098 -53.49527 10459 ft 155 kts 227°
2026-04-26 14:43 -31.00918 -53.50313 10461 ft 154 kts 228°
2026-04-26 14:43 -31.01746 -53.51105 10463 ft 154 kts 228°
2026-04-26 14:44 -31.02359 -53.51694 10459 ft 154 kts 228°
2026-04-26 14:44 -31.03185 -53.52486 10460 ft 153 kts 227°
2026-04-26 14:44 -31.04007 -53.53272 10460 ft 153 kts 227°
2026-04-26 14:44 -31.04831 -53.54065 10460 ft 154 kts 228°
2026-04-26 14:45 -31.05660 -53.54860 10457 ft 155 kts 227°
2026-04-26 14:45 -31.06213 -53.55391 10460 ft 156 kts 228°
2026-04-26 14:45 -31.07318 -53.56450 10459 ft 154 kts 228°
2026-04-26 14:45 -31.08158 -53.57258 10461 ft 155 kts 228°
2026-04-26 14:46 -31.08978 -53.58046 10454 ft 154 kts 228°
2026-04-26 14:46 -31.09815 -53.58849 10458 ft 153 kts 228°
2026-04-26 14:46 -31.10638 -53.59639 10459 ft 153 kts 228°
2026-04-26 14:46 -31.11451 -53.60423 10456 ft 153 kts 227°
2026-04-26 14:47 -31.12253 -53.61198 10306 ft 159 kts 228°
2026-04-26 14:47 -31.13200 -53.62109 10129 ft 162 kts 227°
2026-04-26 14:47 -31.14079 -53.62951 9968 ft 163 kts 227°
2026-04-26 14:47 -31.14957 -53.63799 9799 ft 163 kts 227°
2026-04-26 14:48 -31.15821 -53.64628 9610 ft 163 kts 227°
2026-04-26 14:48 -31.16704 -53.65476 9397 ft 164 kts 227°
2026-04-26 14:48 -31.17598 -53.66338 9183 ft 165 kts 227°
2026-04-26 14:48 -31.18485 -53.67195 8989 ft 165 kts 227°
2026-04-26 14:49 -31.19298 -53.68128 8734 ft 161 kts 243°
2026-04-26 14:49 -31.19573 -53.69342 8492 ft 157 kts 268°
2026-04-26 14:49 -31.19641 -53.70619 8245 ft 157 kts 267°
2026-04-26 14:49 -31.19741 -53.71889 7997 ft 157 kts 266°
2026-04-26 14:50 -31.19847 -53.73153 7743 ft 155 kts 266°
2026-04-26 14:50 -31.19951 -53.74407 7502 ft 155 kts 265°
2026-04-26 14:50 -31.20059 -53.75659 7259 ft 155 kts 265°
2026-04-26 14:50 -31.20166 -53.76916 7018 ft 156 kts 265°
2026-04-26 14:51 -31.20271 -53.78174 6773 ft 155 kts 265°
2026-04-26 14:51 -31.20375 -53.79407 6541 ft 154 kts 265°
2026-04-26 14:51 -31.20477 -53.80655 6305 ft 155 kts 266°
2026-04-26 14:51 -31.20584 -53.81912 6040 ft 155 kts 265°
2026-04-26 14:52 -31.20690 -53.83158 5792 ft 153 kts 265°
2026-04-26 14:52 -31.20790 -53.84380 5545 ft 148 kts 265°
2026-04-26 14:52 -31.20895 -53.85602 5294 ft 146 kts 264°
2026-04-26 14:52 -31.20994 -53.86787 5033 ft 146 kts 264°
2026-04-26 14:53 -31.21094 -53.87960 4788 ft 145 kts 264°
2026-04-26 14:53 -31.21190 -53.89130 4544 ft 146 kts 263°
2026-04-26 14:53 -31.21625 -53.90201 4295 ft 152 kts 232°
2026-04-26 14:53 -31.22400 -53.91037 4036 ft 151 kts 228°
2026-04-26 14:54 -31.23152 -53.91904 3802 ft 155 kts 230°
2026-04-26 14:54 -31.23925 -53.92820 3454 ft 157 kts 229°
2026-04-26 14:54 -31.24709 -53.93749 3112 ft 158 kts 230°
2026-04-26 14:54 -31.25501 -53.94708 2763 ft 165 kts 229°
2026-04-26 14:55 -31.26296 -53.95642 2586 ft 157 kts 229°
2026-04-26 14:55 -31.27029 -53.96519 2575 ft 143 kts 229°
2026-04-26 14:55 -31.27709 -53.97329 2483 ft 137 kts 229°
2026-04-26 14:55 -31.28356 -53.98104 2380 ft 136 kts 230°
2026-04-26 14:56 -31.29084 -53.98978 2278 ft 136 kts 230°
2026-04-26 14:56 -31.29751 -53.99780 2185 ft 136 kts 230°
2026-04-26 14:56 -31.30392 -54.00546 2187 ft 130 kts 230°
2026-04-26 14:56 -31.31028 -54.01315 2167 ft 130 kts 230°
2026-04-26 14:57 -31.31444 -54.01808 2167 ft 127 kts 230°
2026-04-26 14:57 -31.32261 -54.02790 2065 ft 125 kts 229°
2026-04-26 14:57 -31.32670 -54.03274 2015 ft 124 kts 229°
2026-04-26 14:57 -31.33285 -54.04009 1956 ft 129 kts 232°
2026-04-26 14:58 -31.33914 -54.04771 1874 ft 129 kts 230°
2026-04-26 14:58 -31.34526 -54.05504 1791 ft 125 kts 231°
2026-04-26 14:58 -31.35129 -54.06226 1710 ft 124 kts 230°
2026-04-26 14:58 -31.35730 -54.06948 1653 ft 125 kts 232°
2026-04-26 14:59 -31.36344 -54.07685 1600 ft 126 kts 231°
2026-04-26 14:59 -31.36946 -54.08405 1530 ft 122 kts 229°
2026-04-26 14:59 -31.37535 -54.09115 1428 ft 115 kts 230°
2026-04-26 14:59 -31.37839 -54.09551 1176 ft 98 kts 243°
2026-04-26 15:00 -31.38343 -54.10340 749 ft 82 kts 233°
2026-04-26 15:00 -31.38703 -54.10793 601 ft 67 kts 232°
2026-04-26 15:00 -31.38953 -54.11097 598 ft 36 kts 221°
2026-04-26 15:00 -31.39099 -54.11277 599 ft 26 kts 222°
2026-04-26 15:01 -31.39210 -54.11408 598 ft 19 kts 229°
2026-04-26 15:01 -31.39293 -54.11510 597 ft 16 kts 226°
2026-04-26 15:01 -31.39345 -54.11568 596 ft 7 kts 47°
2026-04-26 15:01 -31.39285 -54.11500 597 ft 23 kts 39°
2026-04-26 15:02 -31.39173 -54.11364 598 ft 22 kts 46°
2026-04-26 15:02 -31.39077 -54.11243 599 ft 19 kts 54°
2026-04-26 15:02 -31.38992 -54.11143 598 ft 16 kts 46°
2026-04-26 15:02 -31.38916 -54.11091 598 ft 11 kts 336°
2026-04-26 15:03 -31.38880 -54.11127 599 ft 0 kts 317°
2026-04-26 15:03 -31.38864 -54.11177 599 ft 10 kts 271°
2026-04-26 15:03 -31.38853 -54.11206 599 ft 3 kts
2026-04-26 15:04 -31.38846 -54.11200 599 ft 0 kts 49°